ChubuSat-2 (41338 NORAD) Tracking and Keplerian Element Data

This shows tracking and keplerian element data for the satellite.

Feedback or suggestion? Click here.




ElementValue
Catalog41338
NameChubuSat-2
Epoch Orbit15058
Epoch Day319.56781611
Epoch Year2018
RAAN71.803
Inclination31.0036
Eccentricity0.0013679
Argument of Perigee132.6181
Mean Anonmoly227.561
Mean Motion15.00055423
Decay Rate3.66E-06
L11 41338U 16012B 18319.56781611 .00000366 00000-0 21868-4 0 9990
L22 41338 031.0036 071.8030 0013679 132.6181 227.5610 15.00055423150588

Live tracking and technical data element details for ChubuSat-2 (NORAD 41338). ChubuSat-2 can be tracked NOW for your location showing map with azimuth and elevation plus other details from your city location.

Track the satellite on the map from your city or location and see movement details for azimuth, elevation, latitude, longitude, range, height, and movement on the map or in text.







IsCatalogInMostPopularTable: catalog: 41338, numindb: 110
Update: records affected: 1



GetName: 41338 ChubuSat-2

Hit Count: updated at: Fri, 16 Nov 2018 11:27:31 GMT